Погода в Осиеке

Хорватия     45°33′13″N   18°41′37″E
темп.,
°C
ветер,
м/с
пор.,
м/с
влажн.,
%
обл.,
%
осадки,
мм/ч
давл.,
гПа
погр.,
м
13 апреля, вт
вт1323:00+10с61082100 0.0 1018439
02:00+6с61076100 0.1 1021573
05:00+5с5979100 0.1 1020597
08:00+5ссз5778100 0.2 1021616
11:00+6ссз5671100 0.0 1020818
14:00+5сз5785100 0.8 1020679
17:00+4сз5796100 1.4 1020573
20:00+3зсз5997100 3.6 1020644
14 апреля, ср
ср1423:00+3сз5997100 0.3 1020607
02:00+2сз4999100 1.2 1020419
05:00+3сз4998100 2.1 1020656
08:00+2сз51197100 3.5 1022573
11:00+3сз4997100 0.6 1022600
14:00+6ссз4786100 1.3 1022883
17:00+8ссз6972100 0.9 10211300
20:00+4сз49835 1.1 1022201
15 апреля, чт
чт1523:00+2зсз48851 0.0 1022130
02:000зсз49860 0.0 1022154
05:00−1зсз49885 0.0 1023174
08:00+2зсз59766 0.0 1023325
11:00+8сз575454 0.0 10221503
14:00+10сз5748100 0.2 10221861
17:00+10ссз674885 0.2 10211733
20:00+5с33691 0.2 102120
16 апреля, пт
пт1623:00+3сз33710 0.0 102227
02:00+2зсз36760 0.0 102289
05:00+1зсз38814 0.0 1022130
08:00+4сз47715 0.0 1022321
11:00+9сз46525 0.0 10221288
14:00+12сз564250 0.0 10212127
17:00+12ссз4441100 0.0 10202028
20:00+7ссв3362100 0.0 102135
17 апреля, сб
сб1723:00+5св3370100 0.0 102138
02:00+3с227871 0.0 102014
05:00+3с2280100 0.0 102025
08:00+5ссв2372100 0.0 1020233
11:00+9св2263100 0.0 10191020
14:00+11в3352100 0.0 10181488
17:00+10всв5870100 0.0 1017581
20:00+8всв4875100 0.1 1018466